Total_Precipitation_Accumulation
0.37 0.23 0.24 0.29 0.26 0.27 0.38 0.40 0.35 0.17 0.10 0.08 0.06 0.07 0.08 0.07 0.07 0.06 0.06 0.08 0.11 0.11 0.10 0.13 0.14 0.15 0.20 0.25 0.28 0.33 0.39 0.41 0.41 0.42 0.46 0.46 0.48 0.51 0.53 0.57 0.60 0.62 0.63 0.66
0.45 0.26 0.25 0.27 0.21 0.20 0.22 0.20 0.18 0.13 0.11 0.08 0.05 0.05 0.05 0.06 0.08 0.08 0.08 0.09 0.09 0.12 0.13 0.13 0.18 0.24 0.30 0.37 0.40 0.43 0.48 0.50 0.48 0.44 0.43 0.47 0.48 0.48 0.52 0.56 0.57 0.57 0.57 0.59
0.65 0.33 0.47 0.47 0.22 0.18 0.19 0.17 0.16 0.16 0.13 0.09 0.06 0.04 0.04 0.05 0.08 0.09 0.09 0.09 0.10 0.13 0.17 0.18 0.24 0.32 0.39 0.43 0.44 0.46 0.49 0.53 0.55 0.48 0.43 0.46 0.47 0.46 0.46 0.46 0.48 0.49 0.50 0.50
0.91 0.66 0.84 0.37 0.12 0.12 0.14 0.15 0.15 0.15 0.13 0.11 0.09 0.06 0.05 0.05 0.09 0.12 0.13 0.15 0.15 0.17 0.20 0.24 0.30 0.35 0.41 0.44 0.46 0.47 0.47 0.47 0.47 0.42 0.37 0.39 0.43 0.42 0.39 0.39 0.43 0.44 0.45 0.44
1.15 0.89 0.49 0.14 0.08 0.12 0.17 0.21 0.19 0.17 0.14 0.13 0.12 0.09 0.10 0.11 0.11 0.12 0.13 0.14 0.14 0.14 0.16 0.22 0.27 0.31 0.33 0.36 0.37 0.37 0.37 0.35 0.35 0.32 0.31 0.35 0.40 0.37 0.34 0.33 0.35 0.38 0.40 0.44
1.28 1.01 0.48 0.16 0.07 0.09 0.17 0.27 0.19 0.16 0.16 0.15 0.18 0.31 0.21 0.17 0.12 0.10 0.09 0.08 0.09 0.10 0.11 0.13 0.18 0.21 0.22 0.23 0.25 0.27 0.27 0.27 0.32 0.29 0.27 0.32 0.37 0.36 0.34 0.32 0.35 0.37 0.40 0.47
1.08 0.94 0.41 0.14 0.08 0.12 0.31 0.37 0.22 0.18 0.19 0.23 0.31 0.37 0.23 0.16 0.14 0.12 0.10 0.09 0.10 0.12 0.14 0.16 0.19 0.20 0.20 0.18 0.19 0.20 0.21 0.23 0.30 0.31 0.29 0.30 0.32 0.34 0.34 0.35 0.36 0.38 0.39 0.44
0.85 1.02 0.53 0.16 0.15 0.28 0.38 0.26 0.22 0.22 0.24 0.31 0.28 0.19 0.16 0.16 0.16 0.13 0.12 0.11 0.12 0.15 0.20 0.25 0.25 0.20 0.17 0.14 0.13 0.14 0.18 0.21 0.26 0.33 0.31 0.30 0.31 0.32 0.32 0.36 0.39 0.40 0.41 0.44
0.62 0.56 0.30 0.21 0.24 0.27 0.26 0.26 0.28 0.35 0.35 0.34 0.31 0.24 0.22 0.19 0.15 0.13 0.13 0.14 0.15 0.17 0.21 0.25 0.21 0.16 0.14 0.13 0.12 0.13 0.16 0.20 0.25 0.31 0.30 0.29 0.31 0.32 0.32 0.35 0.41 0.45 0.47 0.49
0.42 0.31 0.22 0.20 0.17 0.17 0.18 0.23 0.26 0.29 0.33 0.36 0.38 0.31 0.26 0.23 0.20 0.17 0.16 0.16 0.16 0.16 0.19 0.22 0.17 0.12 0.11 0.11 0.11 0.13 0.16 0.21 0.26 0.30 0.32 0.31 0.30 0.31 0.33 0.39 0.54 0.62 0.61 0.59
0.30 0.24 0.21 0.20 0.19 0.19 0.20 0.18 0.17 0.18 0.22 0.32 0.38 0.33 0.25 0.21 0.21 0.22 0.21 0.19 0.19 0.19 0.20 0.19 0.15 0.11 0.11 0.13 0.15 0.17 0.19 0.23 0.28 0.32 0.33 0.34 0.32 0.32 0.36 0.41 0.65 0.91 0.87 0.85
0.25 0.20 0.21 0.21 0.19 0.19 0.22 0.20 0.20 0.21 0.22 0.24 0.26 0.25 0.22 0.22 0.23 0.23 0.24 0.25 0.24 0.21 0.17 0.15 0.13 0.12 0.13 0.15 0.19 0.21 0.22 0.24 0.28 0.33 0.35 0.34 0.34 0.34 0.36 0.40 0.51 0.60 0.67 0.80
0.18 0.16 0.15 0.16 0.15 0.15 0.17 0.20 0.22 0.23 0.22 0.19 0.18 0.19 0.24 0.28 0.27 0.25 0.26 0.25 0.22 0.18 0.17 0.16 0.15 0.15 0.16 0.19 0.22 0.24 0.26 0.29 0.33 0.35 0.37 0.37 0.39 0.40 0.40 0.37 0.38 0.43 0.49 0.57
0.13 0.13 0.16 0.14 0.14 0.13 0.15 0.16 0.19 0.21 0.20 0.16 0.15 0.17 0.22 0.26 0.26 0.23 0.22 0.19 0.17 0.16 0.16 0.16 0.16 0.17 0.18 0.20 0.24 0.28 0.30 0.33 0.37 0.39 0.40 0.41 0.43 0.43 0.43 0.44 0.43 0.42 0.43 0.48
0.11 0.12 0.15 0.13 0.11 0.12 0.14 0.15 0.16 0.18 0.17 0.16 0.14 0.15 0.18 0.22 0.26 0.26 0.22 0.17 0.15 0.15 0.15 0.16 0.16 0.16 0.17 0.19 0.23 0.26 0.28 0.31 0.35 0.38 0.40 0.42 0.45 0.46 0.45 0.44 0.45 0.46 0.46 0.49
0.12 0.12 0.12 0.12 0.14 0.16 0.15 0.14 0.16 0.17 0.16 0.16 0.16 0.16 0.17 0.18 0.20 0.20 0.19 0.17 0.16 0.16 0.17 0.17 0.17 0.17 0.17 0.20 0.23 0.24 0.26 0.33 0.39 0.40 0.42 0.43 0.45 0.48 0.49 0.50 0.50 0.50 0.53 0.58
0.15 0.15 0.16 0.17 0.18 0.19 0.20 0.19 0.18 0.17 0.14 0.12 0.13 0.13 0.13 0.13 0.13 0.13 0.15 0.16 0.16 0.17 0.17 0.18 0.19 0.18 0.18 0.20 0.26 0.28 0.29 0.33 0.39 0.40 0.41 0.44 0.48 0.53 0.55 0.58 0.59 0.57 0.54 0.58
0.17 0.19 0.21 0.23 0.23 0.22 0.21 0.18 0.15 0.13 0.12 0.12 0.12 0.12 0.12 0.12 0.13 0.14 0.14 0.15 0.14 0.15 0.16 0.18 0.21 0.19 0.18 0.21 0.30 0.33 0.36 0.39 0.41 0.43 0.43 0.47 0.53 0.55 0.57 0.59 0.60 0.58 0.54 0.54
0.17 0.18 0.19 0.21 0.22 0.23 0.21 0.18 0.15 0.13 0.13 0.13 0.13 0.14 0.15 0.16 0.16 0.16 0.16 0.15 0.15 0.17 0.17 0.18 0.20 0.18 0.19 0.23 0.35 0.39 0.42 0.45 0.45 0.44 0.45 0.51 0.52 0.49 0.53 0.56 0.58 0.56 0.54 0.54
0.19 0.18 0.19 0.20 0.20 0.20 0.20 0.17 0.13 0.13 0.13 0.14 0.15 0.16 0.16 0.17 0.18 0.18 0.17 0.17 0.19 0.22 0.19 0.19 0.19 0.21 0.25 0.30 0.42 0.47 0.49 0.50 0.50 0.48 0.48 0.50 0.51 0.50 0.51 0.53 0.56 0.57 0.56 0.56
0.22 0.20 0.20 0.20 0.19 0.18 0.16 0.15 0.13 0.13 0.13 0.13 0.14 0.16 0.16 0.17 0.17 0.17 0.17 0.18 0.19 0.20 0.19 0.20 0.22 0.32 0.40 0.47 0.51 0.50 0.50 0.51 0.52 0.53 0.54 0.54 0.55 0.52 0.51 0.53 0.56 0.57 0.58 0.57
0.21 0.21 0.21 0.21 0.19 0.17 0.16 0.15 0.15 0.14 0.14 0.15 0.16 0.17 0.18 0.19 0.19 0.19 0.21 0.23 0.24 0.26 0.25 0.24 0.32 0.50 0.55 0.56 0.50 0.49 0.48 0.47 0.48 0.51 0.54 0.57 0.61 0.60 0.58 0.58 0.61 0.60 0.59 0.60
0.22 0.22 0.23 0.22 0.20 0.19 0.18 0.18 0.17 0.17 0.18 0.19 0.19 0.21 0.23 0.24 0.24 0.26 0.31 0.28 0.27 0.31 0.29 0.29 0.41 0.52 0.53 0.49 0.46 0.45 0.46 0.48 0.50 0.52 0.56 0.60 0.64 0.66 0.68 0.66 0.64 0.65 0.66 0.66
0.26 0.26 0.26 0.24 0.21 0.20 0.21 0.21 0.21 0.21 0.21 0.23 0.24 0.25 0.26 0.27 0.28 0.29 0.32 0.32 0.31 0.32 0.30 0.34 0.41 0.44 0.44 0.42 0.43 0.45 0.48 0.53 0.58 0.60 0.61 0.63 0.64 0.67 0.71 0.72 0.72 0.68 0.67 0.67
0.31 0.30 0.27 0.24 0.23 0.24 0.26 0.25 0.24 0.24 0.23 0.24 0.26 0.27 0.27 0.28 0.32 0.33 0.31 0.32 0.33 0.33 0.32 0.34 0.37 0.39 0.38 0.40 0.43 0.47 0.53 0.60 0.68 0.72 0.72 0.70 0.67 0.68 0.70 0.72 0.75 0.75 0.72 0.71
0.36 0.34 0.32 0.30 0.28 0.28 0.28 0.27 0.28 0.29 0.27 0.26 0.27 0.27 0.26 0.27 0.28 0.30 0.32 0.34 0.34 0.34 0.34 0.34 0.35 0.38 0.40 0.43 0.46 0.50 0.56 0.61 0.65 0.65 0.64 0.66 0.66 0.68 0.70 0.73 0.75 0.76 0.76 0.73
0.36 0.33 0.30 0.27 0.26 0.26 0.26 0.27 0.28 0.31 0.30 0.29 0.30 0.28 0.25 0.24 0.26 0.28 0.30 0.33 0.35 0.36 0.36 0.38 0.39 0.42 0.44 0.45 0.48 0.52 0.56 0.59 0.64 0.67 0.67 0.67 0.68 0.70 0.71 0.75 0.77 0.76 0.76 0.75